{"data":{"norad_id":69628,"intl_designator":"2026-138H","name":"KZ-11 R/B","alt_names":[],"object_type":"ROCKET_BODY","status":"UNKNOWN","operator":null,"country":"PRC","launch_date":"2026-06-17","launch_site_code":"JSC","launch_vehicle":null,"mission":null,"orbit_class":"UNKNOWN","rcs_meters":null,"size_class":null,"mass_kg":null,"dimensions":null,"purposes":[],"wikipedia_slug":null,"has_3d_model":false,"image_url":null,"decayed_at":null,"tle_current":{"epoch":"2026-07-12T21:48:00.762624Z","epoch_age_seconds":6042791,"freshness":"OLD","line1":"1 69628U 26138H   26193.90834216  .00780150  97501-5  75497-3 0  9998","line2":"2 69628  55.1520 167.7492 0377051 143.6026 219.1292 15.43010363  3894","mean_motion":15.43010363,"eccentricity":0.0377051,"inclination_deg":55.152,"raan_deg":167.7492,"arg_perigee_deg":143.6026,"mean_anomaly_deg":219.1292,"bstar":0.00075497,"rev_number":389,"period_min":93.324065380888,"perigee_km":180.25639430843,"apogee_km":694.20462113939,"semimajor_km":6815.3675077239,"source":"CELESTRAK","updated_at":"2026-07-17T09:00:52.781280Z"}}}